Location: Amsterdam
(30.7274°N, 84.4357°W)
Time: 18:42:06
(UTC+00:00)

Courier 1B Rocket - Pass Details

Date: 15 February 2026
Orbit: 920 x 1201 km, 28.2° (Epoch: 10 March)

Event Time Altitude Azimuth Distance (km) Brightness Sun altitude
Rises 03:08:24 0° 259° (W) 3,604 8.5 -48.3°
Enters shadow 03:10:55 10° 257° (WSW) 2,704 7.7 -48.8°
Reaches altitude 10° 03:10:58 10° 257° (WSW) 2,688 - -48.8°
Maximum altitude 03:17:27 71° 174° (S) 1,061 - -50.1°
Drops below altitude 10° 03:24:25 10° 92° (E) 2,883 - -51.6°
Sets 03:27:15 0° 90° (E) 3,884 - -52.1°
